Regional Weather Roundup
Issued by NWS Albany, NY

Home | Current Version | Previous Version | Graphics & Text | Print | Product List | Glossary Off
Versions: 1 2 3 4 5 6 7 8 9 10 11 12 13 14 15 16 17 18 19 20 21 22 23 24 25 26 27 28 29 30 31 32 33 34 35 36 37 38 39 40 41 42 43 44 45 46 47 48 49 50

000
ASUS41 KALY 231110
RWRALY

NEW YORK STATE HOURLY WEATHER ROUNDUP
NATIONAL WEATHER SERVICE ALBANY NY
600 AM EST SUN NOV 23 2014

NOTE: "FAIR" INDICATES FEW OR NO CLOUDS BELOW 12,000 FEET WITH NO
SIGNIFICANT WEATHER AND/OR NO OBSTRUCTIONS TO VISIBILITY.

NYZ032-033-038>043-046>054-057>066-NYZ062>081-231200-
EAST


CITY           SKY/WX    TMP DP  RH WIND       PRES   REMARKS
ALBANY         CLOUDY    40  29  64 S9        30.09R WCI  34
GLENS FALLS    CLOUDY    36  32  85 S8        30.07R WCI  30
POUGHKEEPSIE   CLOUDY    44  20  38 SW7       30.14S
NEWBURGH       CLOUDY    41  23  48 W7        30.15R
MONTGOMERY     CLOUDY    40  21  46 SW12      30.14R WCI  33
WHITE PLAINS   DRIZZLE   42  21  43 CALM      30.16R
ISLIP          CLOUDY    44  24  45 SW12      30.17S
NEW YORK CITY  CLOUDY    44  22  41 SW9       30.19R
CENTRAL PARK   CLOUDY    43  22  43 VRB3      30.21R
$$

NYZ005>009-017-018-044>046-055-056-231200-
CENTRAL


CITY           SKY/WX    TMP DP  RH WIND       PRES   REMARKS
FULTON         CLOUDY    45  39  79 S6        30.02S
SYRACUSE       CLOUDY    48  40  73 S8        30.03S
ROME           CLOUDY    40  38  93 E6        30.06R
ELMIRA         CLOUDY    43  37  79 SW5       30.07R
BINGHAMTON     CLOUDY    41  29  62 SW7       30.07R
MONTICELLO     CLOUDY    36  28  75 CALM      30.12S
$$

NYZ026>034-041>043-231200-
NORTH


CITY           SKY/WX    TMP DP  RH WIND       PRES   REMARKS
WATERTOWN      CLOUDY    45  39  79 SW8       30.00R
FORT DRUM      NOT AVBL
MASSENA        FOG       40  40 100 SW6       29.99R VSB 1
SARANAC LAKE   CLOUDY    39  38  96 SW8       29.95R FOG     WCI  33
PLATTSBURGH    CLOUDY    38  35  89 S6        29.98R WCI  33
$$

NYZ001>004-010>016-019>021-231200-
WEST


CITY           SKY/WX    TMP DP  RH WIND       PRES   REMARKS
NIAGARA FALLS  CLOUDY    47  39  74 SW9       29.98S
BUFFALO        CLOUDY    43  36  76 S6        29.99S
DUNKIRK        CLOUDY    47  34  60 S17G24    30.00F
JAMESTOWN      CLOUDY    41  32  70 S7        30.03S
WELLSVILLE     CLOUDY    45  31  58 SW10G18   30.06R
ROCHESTER      CLOUDY    46  40  79 SW8       30.00F
PENN YAN       CLOUDY    49  37  63 SW9       30.04R
$$

             KEY
       WCI = WIND CHILL INDEX
       VSB = VISIBILITY
       HX  = HEAT INDEX
$$


USA.gov is the U.S. government's official web portal to all federal, state and local government web resources and services.